GW0175 Weather Reports


Display with metric or nautical units.
time (UTC)temp
F
wind
direction
speed
MPH
gust
MPH
rain 1hr
in
rain 24hr
in
rain mn
in
humidity
%
barometer
mb
20260502194449 65 237 2.0 4.0 0.00 0.00 0.00 48 1020.2
20260502193944 66 209 1.0 5.0 0.00 0.00 0.00 47 1020.3
20260502193442 64 167 7.0 9.0 0.00 0.00 0.00 48 1020.3
20260502192938 64 186 4.0 9.0 0.00 0.00 0.00 46 1020.3
20260502192435 64 249 4.0 4.0 0.00 0.00 0.00 46 1020.4
20260502191932 64 197 4.0 7.0 0.00 0.00 0.00 47 1020.4
20260502191429 64 40 0.0 5.0 0.00 0.00 0.00 50 1020.8
20260502190927 64 238 5.0 8.0 0.00 0.00 0.00 50 1020.6
20260502190424 64 174 7.0 8.0 0.00 0.00 0.00 49 1020.6
20260502185920 64 173 0.0 5.0 0.00 0.00 0.00 50 1020.4
20260502185415 64 261 3.0 8.0 0.00 0.00 0.00 48 1020.6
20260502184913 63 227 3.0 6.0 0.00 0.00 0.00 48 1020.9
20260502184408 63 199 2.0 12.0 0.00 0.00 0.00 49 1020.9
20260502183905 63 252 4.0 7.0 0.00 0.00 0.00 48 1021.2
20260502183401 63 166 4.0 4.0 0.00 0.00 0.00 49 1021.0
20260502182856 62 230 5.0 7.0 0.00 0.00 0.00 48 1021.0
20260502182352 62 233 4.0 7.0 0.00 0.00 0.00 51 1021.4
20260502181848 62 199 0.0 12.0 0.00 0.00 0.00 48 1021.3
20260502181348 62 208 5.0 8.0 0.00 0.00 0.00 50 1021.4
20260502180845 62 319 2.0 7.0 0.00 0.00 0.00 51 1021.3
20260502180342 62 239 4.0 5.0 0.00 0.00 0.00 49 1021.5
20260502170300 61 201 2.0 6.0 0.00 0.00 0.00 44 1021.8
20260502164243 61 279 0.0 3.0 0.00 0.00 0.00 54 1022.0
20260502163738 60 270 0.0 3.0 0.00 0.00 0.00 59 1022.1
20260502163235 60 194 3.0 3.0 0.00 0.00 0.00 59 1021.8
20260502162732 59 297 3.0 5.0 0.00 0.00 0.00 60 1021.8
20260502162229 58 66 3.0 4.0 0.00 0.00 0.00 63 1022.0
20260502161726 60 345 3.0 5.0 0.00 0.00 0.00 65 1022.0
20260502161222 59 4 0.0 3.0 0.00 0.00 0.00 64 1021.8
20260502160721 60 90 1.0 4.0 0.00 0.00 0.00 63 1022.0
20260502160219 59 270 1.0 3.0 0.00 0.00 0.00 65 1021.9
20260502152143 56 62 3.0 4.0 0.00 0.00 0.00 73 1022.0
20260502151641 56 37 4.0 4.0 0.00 0.00 0.00 72 1021.8
20260502151138 56 144 0.0 2.0 0.00 0.00 0.00 71 1021.8
20260502150635 55 109 0.0 5.0 0.00 0.00 0.00 75 1021.9
20260502150131 55 64 3.0 3.0 0.00 0.00 0.00 75 1022.0
20260502130520 50 19 3.0 3.0 0.00 0.00 0.00 92 1021.3
20260502123503 50 36 4.0 4.0 0.00 0.00 0.00 92 1020.7
20260502123000 50 31 3.0 5.0 0.00 0.00 0.00 92 1020.8
20260502122456 50 23 1.0 7.0 0.00 0.00 0.00 92 1020.6
20260502121954 49 32 3.0 5.0 0.00 0.00 0.00 92 1020.5
20260502121451 49 17 2.0 5.0 0.00 0.00 0.00 92 1020.4
20260502120948 50 39 2.0 5.0 0.00 0.00 0.00 92 1020.5
20260502120444 50 4 4.0 6.0 0.00 0.00 0.00 92 1020.4
20260502115439 50 0 4.0 4.0 0.00 0.00 0.00 92 1020.4
20260502114935 50 6 4.0 4.0 0.00 0.00 0.00 92 1020.2
20260502114432 50 0 2.0 5.0 0.00 0.00 0.00 92 1020.3
20260502113929 49 351 2.0 4.0 0.00 0.00 0.00 92 1020.4
20260502113426 49 337 1.0 5.0 0.00 0.00 0.00 92 1020.3
20260502112925 50 330 2.0 4.0 0.00 0.00 0.00 91 1020.1
20260502112422 49 32 1.0 2.0 0.00 0.00 0.00 91 1020.2
20260502111920 49 0 3.0 3.0 0.00 0.00 0.00 92 1020.3
20260502111416 49 350 2.0 3.0 0.00 0.00 0.00 91 1020.3
20260502110914 50 0 0.0 3.0 0.00 0.00 0.00 92 1020.0
20260502110412 49 342 2.0 3.0 0.00 0.00 0.00 92 1020.1
20260502105909 49 90 0.0 0.0 0.00 0.00 0.00 91 1020.2
20260502105406 49 0 0.0 2.0 0.00 0.00 0.00 91 1020.1
20260502104904 49 72 0.0 0.0 0.00 0.00 0.00 92 1020.0
20260502104401 49 345 0.0 2.0 0.00 0.00 0.00 91 1019.8
20260502103858 49 345 2.0 3.0 0.00 0.00 0.00 92 1019.8
20260502103355 49 346 2.0 4.0 0.00 0.00 0.00 92 1019.7
20260502102852 49 339 3.0 5.0 0.00 0.00 0.00 92 1019.8
20260502102349 49 353 2.0 5.0 0.00 0.00 0.00 92 1020.0
20260502101846 49 0 2.0 3.0 0.00 0.00 0.00 92 1019.8
20260502101345 49 8 0.0 2.0 0.00 0.00 0.00 92 1020.0
20260502100843 49 29 1.0 3.0 0.00 0.00 0.00 92 1019.8
20260502100342 49 20 3.0 4.0 0.00 0.00 0.00 92 1020.1
20260502091315 49 270 0.0 0.0 0.00 0.00 0.00 92 1020.3
20260502090813 49 270 0.0 2.0 0.00 0.00 0.00 92 1020.2
20260502090309 50 90 0.0 0.0 0.00 0.00 0.00 92 1020.1
20260502071205 49 81 0.0 0.0 0.00 0.00 0.00 90 1020.5
20260502070703 49 74 0.0 0.0 0.00 0.00 0.00 90 1020.3
20260502070200 49 106 0.0 0.0 0.00 0.00 0.00 90 1020.4
20260502065659 50 111 0.0 1.0 0.00 0.00 0.00 90 1020.6
20260502065156 49 14 0.0 0.0 0.00 0.00 0.00 90 1020.6
20260502064655 50 354 0.0 0.0 0.00 0.00 0.00 90 1020.7
20260502064151 50 340 0.0 1.0 0.00 0.00 0.00 90 1020.5
20260502063649 50 8 0.0 0.0 0.00 0.00 0.00 89 1020.4
20260502063147 50 8 0.0 0.0 0.00 0.00 0.00 89 1020.5
20260502062643 50 8 0.0 0.0 0.00 0.00 0.00 89 1020.4
20260502062141 49 82 0.0 1.0 0.00 0.00 0.00 89 1020.5
20260502061639 50 12 0.0 0.0 0.00 0.00 0.00 89 1020.4
20260502061137 50 12 0.0 0.0 0.00 0.00 0.00 89 1020.7
20260502060636 50 12 0.0 0.0 0.00 0.00 0.00 89 1020.7
20260502060133 50 12 0.0 2.0 0.00 0.00 0.00 89 1020.8
20260502055631 50 5 0.0 0.0 0.00 1.42 1.42 89 1020.5
20260502055129 50 5 0.0 1.0 0.00 1.42 1.42 89 1020.4
20260502054628 50 19 2.0 2.0 0.00 1.42 1.42 89 1020.3
20260502054125 50 29 2.0 2.0 0.00 1.42 1.42 89 1020.4
20260502053622 50 35 1.0 2.0 0.00 1.42 1.42 89 1020.1
20260502053119 50 81 0.0 2.0 0.00 1.42 1.42 89 1020.1
20260502052617 50 15 2.0 3.0 0.00 1.42 1.42 88 1020.2
20260502052115 50 6 0.0 2.0 0.00 1.42 1.42 88 1020.3
20260502051613 51 5 1.0 2.0 0.00 1.42 1.42 88 1020.2
20260502051111 51 0 1.0 2.0 0.00 1.42 1.42 88 1020.1
20260502050607 51 331 0.0 1.0 0.00 1.42 1.42 88 1020.1
20260502050104 51 7 2.0 2.0 0.00 1.42 1.42 87 1020.2
20260502045600 51 356 2.0 3.0 0.00 1.42 1.42 86 1020.1
20260502045058 51 14 0.0 1.0 0.00 1.42 1.42 86 1020.2
20260502044554 51 0 2.0 3.0 0.00 1.42 1.42 86 1020.1
20260502044051 51 353 1.0 2.0 0.00 1.42 1.42 85 1020.0
20260502043548 51 15 0.0 0.0 0.00 1.42 1.42 85 1019.8
20260502043044 51 15 0.0 0.0 0.00 1.42 1.42 85 1020.0
20260502042539 51 0 0.0 2.0 0.00 1.42 1.42 85 1020.0
20260502042037 51 8 0.0 1.0 0.00 1.42 1.42 85 1019.7
20260502041535 51 14 0.0 1.0 0.00 1.42 1.42 84 1019.6
20260502041031 51 352 0.0 0.0 0.00 1.42 1.42 84 1019.5
20260502040528 51 352 0.0 0.0 0.00 1.42 1.42 84 1019.5
20260502040025 51 14 0.0 2.0 0.00 1.42 1.42 84 1019.6
20260502035521 51 54 0.0 2.0 0.00 1.42 1.42 84 1019.5
20260502035019 51 82 0.0 0.0 0.00 1.42 1.42 84 1019.4
20260502034516 51 99 0.0 0.0 0.00 1.42 1.42 84 1019.5
20260502034015 51 99 0.0 3.0 0.00 1.42 1.42 84 1019.6
20260502033513 51 74 0.0 1.0 0.00 1.42 1.42 84 1019.5
20260502033010 51 65 2.0 2.0 0.00 1.42 1.42 84 1019.4
20260502032505 51 37 3.0 3.0 0.00 1.42 1.42 84 1019.3
20260502032003 51 74 1.0 4.0 0.00 1.42 1.42 85 1019.2
20260502031500 51 111 0.0 3.0 0.00 1.42 1.42 85 1019.0
20260502030958 51 96 3.0 3.0 0.00 1.42 1.42 85 1019.2
20260502030456 52 75 1.0 2.0 0.00 1.42 1.42 85 1019.3
20260502025954 51 75 2.0 3.0 0.00 1.42 1.42 85 1019.2
20260502025451 51 63 2.0 2.0 0.00 1.42 1.42 85 1019.1
20260502024949 52 98 1.0 3.0 0.00 1.42 1.42 85 1019.0
20260502024447 52 95 2.0 2.0 0.00 1.42 1.42 85 1018.9
20260502023945 52 82 0.0 1.0 0.00 1.42 1.42 85 1019.0
20260502023442 52 90 0.0 2.0 0.00 1.42 1.42 85 1018.6
20260502022939 51 71 3.0 4.0 0.00 1.42 1.42 85 1018.5
20260502022435 52 69 0.0 3.0 0.00 1.42 1.42 86 1018.6
20260502021932 52 45 2.0 3.0 0.00 1.42 1.42 86 1018.8
20260502021430 52 60 1.0 2.0 0.00 1.42 1.42 86 1018.4
20260502020927 52 81 0.0 2.0 0.00 1.42 1.42 86 1018.3
20260502020425 52 90 0.0 3.0 0.00 1.42 1.42 86 1018.3
20260502015921 52 90 1.0 2.0 0.00 1.42 1.42 86 1018.3
20260502015419 52 101 3.0 3.0 0.00 1.42 1.42 86 1018.1
20260502014915 52 81 0.0 1.0 0.00 1.42 1.42 86 1018.0
20260502014413 52 81 0.0 1.0 0.00 1.42 1.42 86 1017.9
20260502013909 52 96 2.0 3.0 0.00 1.42 1.42 86 1017.8
20260502013404 52 122 3.0 3.0 0.00 1.42 1.42 86 1017.4
20260502012901 52 101 3.0 3.0 0.00 1.42 1.42 87 1017.8
20260502012359 52 56 4.0 4.0 0.00 1.42 1.42 87 1017.7
20260502011856 51 86 3.0 6.0 0.00 1.42 1.42 88 1017.8
20260502011352 52 19 6.0 6.0 0.00 1.42 1.42 88 1017.2
20260502010849 52 35 4.0 5.0 0.00 1.42 1.42 89 1017.1
20260502010346 51 34 4.0 7.0 0.00 1.42 1.42 90 1017.1
20260502005843 52 60 4.0 4.0 0.00 1.42 1.42 91 1016.9
20260502005341 51 52 2.0 3.0 0.00 1.42 1.42 91 1017.0
20260502004838 51 54 1.0 2.0 0.00 1.42 1.42 91 1016.7
20260502004333 51 107 0.0 2.0 0.00 1.42 1.42 91 1016.9
20260502003832 51 105 3.0 3.0 0.00 1.42 1.42 91 1016.8
20260502003328 51 81 0.0 4.0 0.00 1.42 1.42 92 1017.0
20260502002825 50 83 0.0 4.0 0.00 1.42 1.42 92 1016.9
20260502002322 51 97 1.0 2.0 0.00 1.42 1.42 92 1016.7
20260502001819 51 45 4.0 4.0 0.00 1.42 1.42 92 1016.7
20260502001317 51 100 2.0 4.0 0.00 1.42 1.42 92 1016.6
20260502000814 51 61 2.0 6.0 0.00 1.42 1.42 92 1016.6
20260502000312 51 67 4.0 4.0 0.00 1.42 1.42 93 1016.5
20260501235808 51 96 0.0 4.0 0.00 1.42 1.42 93 1016.7
20260501235305 51 95 2.0 4.0 0.00 1.42 1.42 93 1016.7
20260501234759 50 58 3.0 5.0 0.00 1.42 1.42 93 1016.6
20260501234257 50 65 7.0 7.0 0.00 1.42 1.42 93 1016.6
20260501233755 51 52 4.0 4.0 0.00 1.42 1.42 93 1016.5
20260501233252 50 90 2.0 5.0 0.00 1.42 1.42 93 1016.3
20260501232748 51 78 1.0 4.0 0.00 1.42 1.42 93 1016.3
20260501232245 50 56 4.0 6.0 0.00 1.42 1.42 93 1016.3
20260501231743 51 90 2.0 2.0 0.00 1.42 1.42 93 1016.3
20260501231241 50 72 3.0 4.0 0.00 1.42 1.42 93 1016.2
20260501230739 50 82 5.0 7.0 0.00 1.42 1.42 93 1016.3
20260501230237 50 81 0.0 5.0 0.00 1.42 1.42 93 1016.5
20260501225734 50 53 4.0 5.0 0.00 1.42 1.42 93 1016.6
20260501225231 49 56 6.0 8.0 0.00 1.42 1.42 94 1016.3
20260501224727 49 55 5.0 9.0 0.02 1.42 1.42 94 1016.2
20260501224225 49 50 6.0 7.0 0.02 1.42 1.42 94 1016.3
20260501223721 50 41 6.0 9.0 0.00 1.41 1.41 94 1016.3
20260501223218 50 43 6.0 9.0 0.00 1.41 1.41 94 1016.2
20260501222714 51 78 1.0 6.0 0.00 1.41 1.41 94 1016.1
20260501222211 50 68 2.0 8.0 0.00 1.41 1.41 94 1016.2
20260501221708 50 48 7.0 11.0 0.02 1.41 1.41 94 1016.1
20260501221205 50 51 5.0 7.0 0.02 1.41 1.41 94 1015.9
20260501220703 50 57 12.0 13.0 0.00 1.41 1.41 94 1015.7
20260501220200 50 47 6.0 12.0 0.00 1.41 1.41 94 1016.0
20260501215657 50 38 4.0 9.0 0.02 1.41 1.41 94 1016.0
20260501215152 50 38 3.0 9.0 0.02 1.41 1.41 94 1016.0
20260501214647 49 30 8.0 11.0 0.00 1.41 1.41 94 1016.0
20260501214142 49 45 7.0 10.0 0.02 1.41 1.41 94 1016.1
20260501213640 49 67 8.0 14.0 0.02 1.41 1.41 94 1016.0
20260501213136 50 37 6.0 9.0 0.00 1.40 1.40 94 1015.9
20260501212633 50 46 6.0 10.0 0.02 1.40 1.40 94 1016.0
20260501212129 49 46 6.0 12.0 0.02 1.40 1.40 94 1015.7
20260501211626 49 64 7.0 11.0 0.02 1.40 1.40 94 1015.9
20260501211124 49 63 9.0 11.0 0.07 1.40 1.40 94 1015.8
20260501210620 49 80 6.0 17.0 0.07 1.39 1.39 94 1016.0
20260501210117 49 51 7.0 12.0 0.05 1.39 1.39 94 1016.1
20260501205613 50 45 7.0 10.0 0.07 1.38 1.38 94 1015.9
20260501205111 50 64 7.0 15.0 0.09 1.38 1.38 94 1016.1
20260501204607 50 66 8.0 10.0 0.07 1.37 1.37 94 1015.8
20260501204103 49 53 4.0 11.0 0.09 1.36 1.36 94 1015.7
20260501203600 50 66 7.0 10.0 0.12 1.36 1.36 94 1015.8
20260501203058 49 43 6.0 11.0 0.12 1.35 1.35 94 1015.7
20260501202554 49 46 8.0 13.0 0.12 1.34 1.34 94 1015.6
20260501202051 50 50 11.0 14.0 0.05 1.33 1.33 94 1015.6
20260501201548 50 37 8.0 13.0 0.02 1.32 1.32 94 1015.4
20260501201044 49 56 9.0 14.0 0.05 1.32 1.32 94 1015.5
20260501200542 50 53 13.0 13.0 0.05 1.31 1.31 94 1015.6
20260501200039 49 39 9.0 13.0 0.02 1.31 1.31 94 1015.5
20260501195536 50 51 7.0 12.0 0.05 1.31 1.31 94 1015.5
20260501195032 50 85 6.0 15.0 0.07 1.31 1.31 94 1015.5